TimeCDT,TemperatureF,Dew PointF,Humidity,Sea Level PressureIn,VisibilityMPH,Wind Direction,Wind SpeedMPH,Gust SpeedMPH,PrecipitationIn,Events,Conditions,WindDirDegrees,DateUTC
12:55 AM,59.7,55.8,87,30.04,10.0,North,12.7,-,N/A,,Clear,10,2012-10-08 05:55:00
1:55 AM,58.6,55.0,88,30.04,10.0,North,15.0,-,N/A,,Clear,10,2012-10-08 06:55:00
2:55 AM,57.7,54.1,88,30.03,10.0,North,13.8,-,N/A,,Partly Cloudy,10,2012-10-08 07:55:00
3:55 AM,57.9,53.8,86,30.02,10.0,NNE,11.5,-,N/A,,Overcast,30,2012-10-08 08:55:00
4:55 AM,58.6,54.0,84,30.03,10.0,NNE,8.1,-,N/A,,Overcast,20,2012-10-08 09:55:00
5:55 AM,58.1,53.4,84,30.04,10.0,NNE,8.1,-,N/A,,Mostly Cloudy,20,2012-10-08 10:55:00
6:55 AM,57.2,53.1,86,30.05,10.0,NNE,9.2,-,N/A,,Mostly Cloudy,20,2012-10-08 11:55:00
7:55 AM,58.3,53.8,85,30.06,10.0,North,8.1,-,N/A,,Partly Cloudy,10,2012-10-08 12:55:00
8:55 AM,61.3,55.0,80,30.08,10.0,North,10.4,-,N/A,,Mostly Cloudy,10,2012-10-08 13:55:00
9:55 AM,65.5,57.7,76,30.10,10.0,North,8.1,-,N/A,,Mostly Cloudy,360,2012-10-08 14:55:00
10:55 AM,73.8,61.2,65,30.09,10.0,North,8.1,-,N/A,,Mostly Cloudy,350,2012-10-08 15:55:00
11:55 AM,75.9,61.9,62,30.07,10.0,North,8.1,-,N/A,,Clear,360,2012-10-08 16:55:00
12:47 PM,77.0,62.6,61,30.05,10.0,NNE,6.9,-,N/A,,Light Drizzle,20,2012-10-08 17:47:00
12:55 PM,78.1,63.0,60,30.04,10.0,Variable,6.9,-,0.00,,Light Drizzle,0,2012-10-08 17:55:00
12:57 PM,78.8,62.6,57,30.04,10.0,NNE,8.1,-,N/A,,Partly Cloudy,20,2012-10-08 17:57:00
1:55 PM,78.6,62.6,58,30.02,10.0,North,10.4,-,0.00,,Clear,360,2012-10-08 18:55:00
2:55 PM,78.6,62.4,57,30.01,10.0,North,8.1,-,N/A,,Clear,350,2012-10-08 19:55:00
3:55 PM,78.6,62.6,58,30.01,10.0,North,10.4,-,N/A,,Clear,10,2012-10-08 20:55:00
4:55 PM,77.2,62.2,60,30.01,10.0,NNE,6.9,-,N/A,,Clear,20,2012-10-08 21:55:00
5:55 PM,73.9,61.3,65,30.03,10.0,North,9.2,-,N/A,,Clear,10,2012-10-08 22:55:00
6:55 PM,68.2,61.2,78,30.04,10.0,North,8.1,-,N/A,,Clear,10,2012-10-08 23:55:00
7:55 PM,66.0,60.1,81,30.06,10.0,North,9.2,-,N/A,,Clear,360,2012-10-09 00:55:00
8:55 PM,64.4,58.5,81,30.08,10.0,North,10.4,-,N/A,,Clear,360,2012-10-09 01:55:00
9:55 PM,62.6,57.0,82,30.09,10.0,North,9.2,-,N/A,,Clear,360,2012-10-09 02:55:00
10:55 PM,60.6,56.1,85,30.08,10.0,North,9.2,-,N/A,,Clear,10,2012-10-09 03:55:00
11:55 PM,59.4,55.2,86,30.07,10.0,North,10.4,-,N/A,,Clear,10,2012-10-09 04:55:00